Tours, France

1:58 AM CEST on June 23, 2017 (GMT +0200)
Val de Loire Air Base

Weather History for LFOT - January, 2012

Change the Weather History Date:

Tuesday, January 31, 2012

  Actual Average Record
Temperature  
Mean Temperature 28 °F -  
Max Temperature 31 °F 46 °F 59 °F (2017)
Min Temperature 24 °F 34 °F 24 °F (2012)
Degree Days  
Heating Degree Days 38    
Moisture  
Dew Point 27 °F    
Average Humidity 87    
Maximum Humidity 100    
Minimum Humidity 75    
Precipitation  
Precipitation 0.00 in - - ()
Sea Level Pressure  
Sea Level Pressure 30.17 in    
Wind  
Wind Speed 6 mph ()    
Max Wind Speed 12 mph    
Max Gust Speed -    
Visibility 4.1 miles    
Events Snow    
Averages and records for this station are not official NWS values.
T = Trace of Precipitation, MM = Missing Value Source: Averaged Metar Reports

Daily Weather History Graph

Daily Weather History Graph

Search for Another Location

Airport or City:

Trip Planner

Search our weather history database for the weather conditions in past years. The results will help you decide how hot, cold, wet, or windy it might be!

Date:

Astronomy

Jan. 31, 2012 Rise Set
Actual Time 8:25 AM CET 5:56 PM CET
Civil Twilight 7:52 AM CET 6:29 PM CET
Nautical Twilight 7:15 AM CET 7:06 PM CET
Astronomical Twilight 6:39 AM CET 7:42 PM CET
Moon 11:35 AM CET (1/31) 1:59 AM CET (1/31)
Length of Visible Light 10h 36m
Length of Day
9h 30m
First Quarter, 53% of the Moon is Illuminated
Jan 31
First Quarter
Feb 7
Full
Feb 14
Last Quarter
Feb 21
New
Mar 1
First Quarter

Hourly Weather History & Observations

Time (CET) Temp. Windchill Dew Point Humidity Pressure Visibility Wind Dir Wind Speed Gust Speed Precip Events Conditions
12:00 AM 32.0 °F 24.2 °F 32.0 °F 100% 30.12 in 2.8 mi ENE 9.2 mph - N/A   Mostly Cloudy
12:30 AM 32.0 °F 24.2 °F 32.0 °F 100% 30.12 in 2.8 mi ENE 9.2 mph - N/A   Mostly Cloudy
1:00 AM 33 °F - 31 °F 91% 30.15 in 3 mi ENE 9.2 mph - -   Mist
1:00 AM 32.0 °F 24.2 °F 32.0 °F 100% 30.12 in 2.8 mi ENE 9.2 mph - N/A   Mostly Cloudy
1:30 AM 32.0 °F 24.8 °F 30.2 °F 93% 30.12 in 3.1 mi ENE 8.1 mph - N/A   Overcast
2:00 AM 32.0 °F 24.8 °F 30.2 °F 93% 30.12 in 3.1 mi NE 8.1 mph - N/A   Overcast
2:30 AM 32.0 °F 26.4 °F 30.2 °F 93% 30.12 in 3.1 mi NE 5.8 mph - N/A   Overcast
3:00 AM 32.0 °F 26.4 °F 30.2 °F 93% 30.12 in - NE 5.8 mph - N/A   Overcast
3:30 AM 32.0 °F 25.6 °F 30.2 °F 93% 30.12 in 3.1 mi NE 6.9 mph - N/A   Overcast
4:30 AM 32.0 °F 28.7 °F 30.2 °F 93% 30.12 in 2.8 mi NNE 3.5 mph - N/A   Mostly Cloudy
5:00 AM 32.0 °F 26.4 °F 30.2 °F 93% 30.12 in 2.8 mi NE 5.8 mph - N/A   Mostly Cloudy
5:30 AM 32.0 °F 28.7 °F 30.2 °F 93% 30.12 in 2.8 mi Variable 3.5 mph - N/A   Mostly Cloudy
6:00 AM 32.0 °F - 30.2 °F 93% 30.12 in 2.5 mi Variable 2.3 mph - N/A   Mostly Cloudy
6:30 AM 32.0 °F - 30.2 °F 93% 30.12 in 2.8 mi Variable 2.3 mph - N/A   Mostly Cloudy
7:00 AM 32 °F - 29 °F 85% 30.17 in 3 mi NE 4.6 mph - -   Mist
7:00 AM 32.0 °F 27.5 °F 30.2 °F 93% 30.12 in 2.8 mi NE 4.6 mph - N/A   Mostly Cloudy
7:30 AM 32.0 °F 27.5 °F 28.4 °F 87% 30.12 in 3.1 mi NE 4.6 mph - N/A   Overcast
8:00 AM 32.0 °F 28.7 °F 28.4 °F 87% 30.12 in 3.7 mi NE 3.5 mph - N/A   Overcast
8:30 AM 32.0 °F 27.5 °F 28.4 °F 87% 30.15 in 3.1 mi NE 4.6 mph - N/A   Overcast
9:00 AM 32.0 °F 28.7 °F 28.4 °F 87% 30.15 in - NNE 3.5 mph - N/A   Overcast
9:30 AM 32.0 °F 28.7 °F 28.4 °F 87% 30.15 in - Variable 3.5 mph - N/A   Overcast
10:00 AM 32.0 °F 24.2 °F 24.8 °F 75% 30.15 in 5.0 mi NE 9.2 mph - N/A   Overcast
10:30 AM 30.2 °F 24.3 °F 26.6 °F 86% 30.15 in 5.0 mi NE 5.8 mph - N/A Snow Light Snow
11:00 AM 30.2 °F 23.4 °F 24.8 °F 80% 30.18 in 5.6 mi NE 6.9 mph - N/A   Overcast
11:30 AM 30.2 °F 23.4 °F 24.8 °F 80% 30.18 in 6.2 mi NE 6.9 mph - N/A   Overcast
12:00 PM 30.2 °F 21.3 °F 24.8 °F 80% 30.18 in 6.2 mi ENE 10.4 mph - N/A Snow Light Snow
12:30 PM 30.2 °F 20.8 °F 24.8 °F 80% 30.18 in 5.0 mi ENE 11.5 mph - N/A Snow Light Snow
1:00 PM 30 °F - 25 °F 75% 30.22 in 6 mi NE 6.9 mph - - Snow Light Snow
1:00 PM 30.2 °F 23.4 °F 24.8 °F 80% 30.18 in 5.6 mi NE 6.9 mph - N/A Snow Light Snow
1:30 PM 30.2 °F 21.9 °F 24.8 °F 80% 30.18 in 5.6 mi ENE 9.2 mph - N/A Snow Light Snow
2:00 PM 30.2 °F 24.3 °F 24.8 °F 80% 30.18 in 5.0 mi NE 5.8 mph - N/A   Overcast
2:30 PM 30.2 °F 25.4 °F 24.8 °F 80% 30.18 in 5.0 mi North 4.6 mph - N/A   Overcast
3:00 PM 30.2 °F 22.6 °F 23.0 °F 75% 30.18 in 6.2 mi North 8.1 mph - N/A   Overcast
3:30 PM 30.2 °F 23.4 °F 23.0 °F 75% 30.18 in 6.2 mi North 6.9 mph - N/A   Overcast
4:00 PM 30.2 °F 24.3 °F 24.8 °F 80% 30.21 in 6.2 mi NNE 5.8 mph - N/A   Overcast
4:30 PM 30.2 °F 26.7 °F 24.8 °F 80% 30.21 in 5.6 mi Variable 3.5 mph - N/A   Overcast
5:00 PM 30.2 °F - 24.8 °F 80% 30.21 in 5.6 mi Variable 2.3 mph - N/A   Overcast
5:30 PM 30.2 °F 25.4 °F 24.8 °F 80% 30.21 in 5.0 mi NE 4.6 mph - N/A   Overcast
6:00 PM 30.2 °F 24.3 °F 26.6 °F 86% 30.21 in 4.3 mi NE 5.8 mph - N/A   Mostly Cloudy
6:30 PM 28.4 °F 22.2 °F 23.0 °F 80% 30.21 in 5.6 mi ENE 5.8 mph - N/A   Partly Cloudy
7:00 PM 27 °F - 23 °F 79% 30.25 in 5 mi ENE 3.5 mph - -   Scattered Clouds
7:00 PM 28.4 °F 24.6 °F 23.0 °F 80% 30.21 in 5.0 mi ENE 3.5 mph - N/A   Partly Cloudy
7:30 PM 26.6 °F - 23.0 °F 86% 30.21 in 4.3 mi East 1.2 mph - N/A   Unknown
8:00 PM 26.6 °F 22.6 °F 23.0 °F 86% 30.21 in 3.7 mi East 3.5 mph - N/A   Unknown
8:30 PM 24.8 °F 20.5 °F 23.0 °F 93% 30.21 in 3.7 mi ENE 3.5 mph - N/A   Unknown
9:00 PM 24.8 °F 20.5 °F 23.0 °F 93% 30.21 in 3.7 mi ENE 3.5 mph - N/A   Unknown
9:30 PM 24.8 °F - 23.0 °F 93% 30.21 in 3.1 mi Calm Calm - N/A   Unknown
10:00 PM 24.8 °F 20.5 °F 23.0 °F 93% 30.21 in 3.1 mi West 3.5 mph - N/A   Mostly Cloudy
10:30 PM 26.6 °F - 24.8 °F 93% 30.21 in 3.1 mi Variable 1.2 mph - N/A   Mostly Cloudy
11:00 PM 26.6 °F - 24.8 °F 93% 30.21 in 3.1 mi Variable 2.3 mph - N/A   Mostly Cloudy
11:30 PM 26.6 °F - 24.8 °F 93% 30.21 in 3.1 mi North 2.3 mph - N/A   Mostly Cloudy